Location: Dumbr?vi?a
(45.8833°N, 22.7000°E)
Time: 07:59:14
(UTC+00:00)

Meteor 2-4 Rocket - Pass Details

Date: 03 March 2021
Orbit: 799 x 908 km, 81.2° (Epoch: 10 April)

Event Time Altitude Azimuth Distance (km) Brightness Sun altitude
Rises 17:03:35 0° 354° (N) 3,486 7.0 -8.6°
Reaches altitude 10° 17:06:09 10° 1° (N) 2,558 6.2 -9.1°
Maximum altitude 17:11:44 45° 73° (ENE) 1,216 4.1 -10.0°
Drops below altitude 10° 17:17:21 10° 145° (SE) 2,583 5.9 -11.0°
Sets 17:19:56 0° 152° (SSE) 3,523 6.6 -11.5°
